SCP
1 1 2 4 4 3 2 1 1 0 0 0 1 1 1 1 1 1 1 1 1 0 0 0 0 1 1 0 0 0 0 1 1 1 1 2 2 2 2 2 2 2 2
1 1 3 4 4 3 1 1 0 0 0 0 0 0 1 1 1 1 1 1 0 0 0 0 1 1 1 1 0 0 0 1 1 1 2 2 2 2 2 2 2 2 2
1 2 3 3 2 2 1 1 0 0 0 0 0 0 0 0 0 0 0 0 0 0 0 1 1 1 1 1 1 1 1 1 1 1 2 2 2 2 2 2 2 2 2
1 2 3 2 2 2 2 2 1 1 1 1 1 1 1 0 0 0 1 1 1 0 0 1 1 1 1 1 1 1 1 1 1 1 2 2 2 1 1 1 2 2 2
2 2 2 2 2 2 2 2 2 2 2 2 2 2 1 0 0 1 1 1 1 1 1 1 1 1 1 0 0 1 1 1 1 1 1 1 1 1 1 1 1 2 2
1 2 2 2 2 2 1 1 2 3 2 2 2 2 2 0 0 0 1 1 2 1 1 1 0 0 0 0 0 0 0 0 1 1 1 1 1 1 1 1 1 2 2
1 1 1 2 2 1 1 1 2 3 3 2 3 3 2 1 0 0 1 1 2 1 1 1 0 0 0 0 0 0 0 0 0 1 1 1 1 1 1 1 1 2 2
1 1 1 2 2 1 0 0 1 2 2 2 2 2 2 1 0 0 0 1 1 1 1 0 0 0 0 0 0 0 0 0 0 0 1 1 1 1 1 1 1 2 2
1 1 1 1 1 1 1 1 1 1 1 1 1 1 1 1 0 0 0 1 1 1 1 0 0 0 0 0 0 1 1 0 0 0 0 0 0 0 1 1 2 2 2
0 0 1 1 1 1 1 1 1 1 1 0 0 0 1 0 0 0 0 1 1 1 1 0 0 0 0 0 0 0 0 0 0 0 1 1 1 1 2 2 3 2 2
0 0 1 1 1 1 1 1 1 1 1 1 0 0 0 0 0 0 0 0 1 1 1 0 0 0 0 0 0 0 0 0 0 1 1 2 2 3 3 3 3 2 3
1 1 1 1 1 1 1 1 1 1 1 1 1 0 0 0 0 0 0 0 0 1 1 0 0 0 0 0 0 0 0 0 0 1 1 2 2 2 3 3 3 3 4
2 2 2 1 1 1 1 1 1 1 1 1 1 1 0 0 0 0 0 0 0 0 0 0 0 0 0 0 0 0 0 0 1 1 1 1 1 2 2 3 3 3 4
3 3 2 2 1 1 1 0 0 1 1 1 1 1 1 0 0 0 0 0 0 0 0 0 0 0 0 0 0 0 1 1 1 1 1 1 1 1 2 2 3 3 3
3 3 2 2 1 1 1 0 0 0 0 0 0 0 0 0 0 0 0 0 0 0 0 0 0 0 0 1 1 1 1 1 1 1 1 1 1 1 1 1 2 2 2
3 3 2 2 1 1 1 1 0 0 0 0 0 0 0 0 0 0 0 0 0 0 0 0 0 0 0 0 1 1 1 1 1 1 1 0 0 0 0 1 1 1 1
3 3 2 2 2 1 1 1 1 0 0 0 0 0 0 0 0 0 0 0 0 0 0 0 0 0 0 0 0 0 0 1 1 1 1 0 0 0 0 0 0 0 0
2 2 2 2 2 1 1 1 1 0 0 0 0 0 0 0 0 0 0 0 0 0 0 0 0 0 0 0 0 0 0 1 1 1 1 0 0 0 0 0 0 0 0
1 1 1 2 1 1 1 0 0 0 0 0 0 0 0 0 0 0 0 0 0 0 0 0 0 0 0 0 0 0 0 0 1 1 1 0 0 0 0 0 0 0 0
1 1 1 1 1 1 0 0 0 0 0 0 0 0 0 0 0 0 0 0 0 0 0 0 0 0 0 0 0 0 0 0 1 1 1 1 0 0 0 0 0 0 0
0 0 0 0 1 0 0 0 0 0 0 0 0 0 0 0 0 0 0 0 0 0 0 0 0 0 0 0 0 0 0 0 0 1 1 1 1 0 0 0 0 0 0
0 0 0 0 0 0 0 0 0 0 0 0 0 0 0 0 0 0 0 0 0 0 0 0 0 0 0 0 0 0 0 0 0 0 0 0 0 1 1 1 1 1 1
0 0 0 0 0 0 0 0 0 0 0 0 0 0 0 0 0 0 0 0 0 0 0 0 0 0 0 0 0 0 0 0 0 0 0 0 0 0 1 1 1 1 1
0 0 0 0 0 0 0 0 0 0 0 0 0 0 0 0 0 0 0 0 0 0 0 0 0 0 0 0 0 0 0 0 0 0 0 0 0 0 0 0 0 1 1
0 0 0 0 0 0 0 0 0 0 0 0 0 0 0 0 0 0 0 0 0 0 0 0 0 0 0 0 0 0 0 0 0 0 0 0 0 0 0 0 0 0 0
0 0 0 0 0 0 0 0 0 0 0 0 0 0 0 0 0 0 0 0 0 0 0 0 0 0 0 0 0 0 0 0 0 0 0 0 0 0 0 0 0 0 0
Wind_Speed
5 5 5 5 5 5 5 6 5 5 5 5 5 5 6 5 5 4 5 5 5 5 4 4 4 4 3 2 2 2 1 2 4 4 4 5 4 3 3 2 3 4 6
5 5 5 5 5 5 6 6 5 5 5 5 5 6 6 6 6 6 5 5 5 5 5 5 5 4 4 3 2 3 3 3 4 6 5 5 5 4 3 2 2 3 4
4 5 5 5 5 6 6 5 5 6 6 6 6 7 7 6 6 6 6 6 6 5 5 5 5 5 5 4 4 4 3 4 4 5 5 3 3 3 3 3 3 2 3
4 5 5 5 5 5 5 5 5 5 6 7 7 7 7 7 7 7 6 6 6 6 6 6 6 6 5 4 4 4 4 4 5 4 4 4 3 4 3 3 3 3 2
4 5 5 4 5 5 5 5 6 6 6 6 6 7 7 7 7 7 6 6 6 7 7 7 8 8 8 5 4 4 4 3 4 4 4 4 4 3 2 1 2 2 3
4 5 5 5 5 6 6 5 6 6 6 6 7 7 8 8 9 9 6 7 7 7 7 6 7 7 8 8 8 8 5 3 3 2 3 4 3 2 1 0 1 1 2
5 5 5 5 5 5 6 6 6 6 6 6 7 7 9 10 9 9 8 5 7 7 6 5 6 7 5 7 7 7 7 7 4 2 4 3 3 2 0 1 1 1 1
5 5 5 5 5 5 6 6 6 5 6 6 6 7 8 9 9 8 8 5 7 7 7 6 6 7 7 5 5 6 6 6 4 3 4 3 3 2 0 1 1 2 2
5 5 5 5 5 5 6 7 6 5 6 5 6 7 7 8 9 8 8 4 6 7 7 8 7 7 8 6 3 5 6 5 6 6 5 3 3 2 3 2 2 2 1
6 5 5 5 6 6 6 6 5 4 4 5 7 7 7 7 7 8 9 3 5 5 5 7 10 9 8 7 3 4 5 4 4 5 4 4 4 4 3 3 3 2 1
6 6 6 6 6 6 5 4 4 4 5 5 6 6 6 6 6 8 10 5 4 4 5 5 7 7 7 7 5 4 4 2 1 2 3 3 2 3 3 2 1 3 3
6 6 6 5 5 5 5 4 4 4 5 4 4 4 5 5 6 6 8 8 7 4 5 5 6 5 5 4 4 4 3 5 1 1 1 1 1 1 1 1 1 2 3
6 6 5 5 4 4 3 4 3 3 3 3 3 3 4 5 5 3 3 4 6 4 5 6 4 2 1 2 2 2 4 2 1 1 1 2 2 2 1 1 2 2 4
6 6 5 4 4 4 2 2 3 2 2 2 2 3 4 4 3 3 2 2 3 2 2 3 3 2 2 1 2 2 0 3 3 2 2 2 1 0 1 1 1 2 2
6 5 4 4 4 4 4 5 4 6 6 4 4 3 3 4 6 7 6 5 5 5 4 1 1 2 2 2 2 2 1 1 0 2 2 2 2 2 1 1 2 3 3
6 4 3 4 3 3 4 5 6 5 4 4 5 5 5 6 3 3 3 4 4 7 6 1 2 2 2 2 2 1 1 2 2 2 2 2 2 2 2 2 3 3 3
5 4 3 3 3 3 3 4 5 5 2 2 1 2 3 2 1 0 2 4 6 7 4 1 2 2 2 2 2 2 2 2 3 3 3 3 3 3 3 3 3 3 4
5 4 2 3 3 3 3 3 3 3 4 5 5 4 3 3 2 2 3 6 5 4 1 1 2 2 2 2 2 2 2 2 2 2 3 3 3 4 4 4 3 4 4
5 4 2 2 2 2 2 2 2 2 2 3 5 7 7 6 7 5 6 5 2 1 1 1 2 2 2 2 2 2 3 3 3 4 3 4 4 4 4 4 4 3 5
4 3 1 2 2 2 2 1 2 2 1 1 2 3 5 6 5 5 5 3 2 2 2 2 2 2 2 3 3 3 3 3 3 4 3 4 4 4 5 5 5 5 5
5 6 6 4 2 2 1 1 1 0 1 1 1 4 3 3 1 1 1 2 2 2 2 3 3 3 3 3 3 3 4 4 4 4 4 4 4 4 5 5 5 5 6
4 4 4 2 2 1 0 1 1 1 1 1 1 5 6 5 3 2 2 2 2 2 3 3 4 3 3 4 3 4 4 4 4 4 5 5 5 5 5 5 6 6 6
4 4 3 3 2 3 4 2 2 2 1 1 2 1 3 3 2 2 2 2 3 3 3 3 4 4 3 3 4 4 5 5 4 5 5 6 6 5 5 6 7 8 8
4 4 4 3 3 3 2 2 2 2 2 2 2 3 2 2 3 3 3 3 3 3 4 4 4 5 5 5 5 5 3 3 6 5 7 7 8 7 7 7 8 9 9
5 5 4 4 3 3 2 2 2 3 3 3 3 3 3 3 3 3 3 3 4 4 5 5 4 5 6 7 7 5 1 2 4 6 7 7 9 9 9 9 9 9 10
6 5 5 4 4 3 3 3 3 3 4 3 3 3 4 4 4 4 4 4 4 4 5 5 6 7 8 8 7 5 4 5 6 7 8 9 9 9 10 9 11 10 11
Wind_Direction
59 54 53 51 50 51 52 47 41 35 35 41 43 45 46 46 53 56 55 60 58 58 55 58 55 60 72 86 93 105 111 124 131 125 130 133 145 150 150 183 174 188 153
65 60 58 57 56 52 50 46 43 43 43 50 52 53 52 52 55 55 53 52 55 59 60 66 65 68 70 71 76 84 87 96 128 129 132 139 148 155 159 194 185 186 162
72 69 63 54 55 53 47 44 47 48 47 50 53 55 54 57 58 55 55 54 52 54 58 62 67 73 66 63 66 77 89 100 110 128 129 127 139 146 170 179 177 195 185
79 72 64 56 54 53 53 55 57 55 54 54 55 56 55 56 57 55 58 59 57 57 58 60 59 63 64 66 72 79 88 101 113 125 130 140 145 162 190 183 172 178 184
85 77 71 68 68 64 59 58 60 61 61 62 64 63 59 56 49 42 52 63 62 62 61 62 65 68 59 49 62 82 98 112 124 130 140 147 144 162 167 191 173 176 163
88 80 77 72 72 69 64 63 64 64 64 62 62 65 63 56 35 27 26 57 57 59 60 63 80 80 82 78 68 60 52 78 98 123 130 118 122 127 103 232 188 203 164
98 91 86 82 76 72 71 70 69 70 70 68 66 67 70 59 38 30 22 41 59 54 52 52 61 70 72 84 96 101 76 61 54 38 89 94 119 105 107 191 126 319 20
99 90 87 83 81 79 78 74 71 72 72 70 65 66 72 61 38 28 10 48 61 57 53 55 59 58 49 38 75 88 91 83 72 74 81 80 78 70 354 278 224 226 215
101 93 88 81 79 80 77 72 67 70 74 76 72 68 71 65 35 16 354 63 67 64 57 49 50 61 35 4 64 93 97 101 98 79 62 58 45 3 319 280 256 257 228
104 97 88 82 80 79 77 75 75 74 73 77 77 69 69 66 41 15 349 55 69 72 75 76 62 44 22 1 42 80 91 92 104 129 145 174 183 172 214 273 303 304 299
108 101 90 86 89 88 85 80 83 82 76 74 80 79 73 62 61 31 8 18 40 53 66 69 65 39 25 9 359 46 46 357 97 140 150 155 160 163 183 195 304 315 328
110 102 96 89 85 93 96 92 85 90 99 97 95 90 90 79 51 44 25 20 0 37 50 57 66 37 22 10 26 40 331 290 246 105 100 100 92 98 90 54 355 318 311
116 105 103 100 93 93 98 99 94 85 90 94 98 95 91 93 99 86 50 22 4 21 47 48 28 350 290 141 117 291 275 269 45 50 56 60 54 53 0 214 213 232 247
121 115 116 116 111 99 85 79 74 63 68 87 85 86 93 96 81 87 117 140 168 138 91 135 201 265 276 58 183 214 330 27 4 14 20 25 30 159 257 321 320 299 283
124 120 123 110 96 94 71 38 28 51 30 9 33 52 54 68 47 16 353 14 11 22 334 254 173 148 154 111 91 75 78 121 27 26 5 345 343 346 343 337 316 299 299
137 137 129 116 110 117 121 113 65 54 68 44 18 4 58 66 58 35 23 356 335 322 309 14 52 45 40 54 45 49 50 33 11 1 351 344 342 339 336 326 313 311 315
132 126 122 113 119 119 114 117 125 126 136 122 89 50 51 74 79 5 296 292 284 289 278 33 38 28 18 16 15 9 14 27 357 339 342 340 332 323 317 315 319 318 314
137 132 145 131 116 105 103 113 117 125 141 143 151 164 173 188 210 247 268 269 234 227 283 16 16 14 4 353 354 354 348 347 329 329 333 329 325 317 312 308 306 314 315
152 143 142 128 146 126 123 124 109 102 100 115 135 152 184 196 209 231 250 263 306 343 358 353 345 341 342 337 331 329 323 320 322 316 314 314 311 307 308 308 304 305 288
144 108 232 199 163 154 158 142 121 121 115 100 110 120 159 197 203 189 206 238 282 312 321 319 324 324 315 305 297 290 287 292 292 283 292 296 299 301 303 301 302 300 296
162 157 202 228 173 152 156 164 161 194 130 114 98 77 353 282 271 283 264 244 267 292 308 307 293 278 275 277 289 298 298 300 301 301 301 297 296 296 297 295 294 294 295
182 176 186 182 154 155 180 212 216 220 211 235 180 155 183 249 276 282 279 273 267 266 275 286 291 292 297 297 301 291 289 291 297 300 299 297 292 290 290 289 292 298 298
197 186 180 177 178 164 225 226 228 244 248 255 269 262 195 230 259 272 278 275 270 270 270 266 272 279 284 280 284 288 294 304 307 308 300 293 290 289 289 289 289 289 291
196 206 204 193 203 215 225 238 244 255 267 275 279 276 275 268 272 282 281 276 271 267 265 266 272 280 279 275 272 267 275 301 302 293 288 288 287 286 286 284 284 287 288
209 212 217 213 216 225 234 252 261 263 265 269 273 275 275 273 270 264 261 261 262 264 266 264 262 261 262 263 268 278 129 183 254 285 282 274 276 278 280 282 281 284 284
216 219 226 227 225 235 246 252 258 268 271 271 272 275 278 277 273 274 271 266 267 264 264 262 257 259 259 257 259 253 202 212 226 242 267 273 273 275 279 278 279 278 279